Content
SEND FEEDBACK

Daily
Averages
Monthly
Summary
United States of America

BOX ELDER, SOUTH DAKOTA


Home > North America > United States > South Dakota
Elevation: 3170 feet     Latitude: 44 09N     Longitude: 103 06W

WEATHER
 
SELECT A DAY
Number of Records: 204,161;   Date Range: 1/1/95 - 8/12/14
 
SHARE

PRINT THIS DATA

[ ← Previous Day ]
WEATHER ALMANAC - SEPTEMBER 25, 2013
[ Next Day → ]
[ °C ]   °F
Weather ElementAverageHighLow
Temperature64.6 °F81 °F (3:58 pm)55.4 °F (6:58 am)
Dewpoint45.7 °F50.9 °F (10:58 pm)41 °F (2:58 am)
Humidity52.8 %79 % (10:58 pm)29 % (3:58 pm)
Barometer29.55 in29.69 in (1:58 am)29.40 in (4:58 pm)
Wind Speed16.9 mph25.3 mph (6:58 pm)
Wind Gust34.5 mph (6:58 pm)
Weather ElementAverage
Visibility10 mi
Wind DirectionWSW (234 °)

Weather ElementTotal
Precipitation0.01 in
Cooling Degree Days3.2 (Base 65)
Growing Degree Days18.2 (Base 50)
Averaged from 25 records on September 25, 2013
WEATHER CONDITIONS BREAKOUT
WIND DIRECTION BREAKOUT
WEATHER BY HOUR - SEPTEMBER 25, 2013
[ °C ]   °F
Local TimeTemperatureDewpointHumidityBarometerVisibilityWind DirectionWind SpeedGust SpeedPrecipitationEventsConditions
1:58 AM57.4 °F42.4 °F57 %29.69 in10.0 miSouth (190°)13.8 mph21.9 mphClear
2:58 AM58.6 °F41.0 °F52 %29.66 in10.0 miSouth (180°)18.4 mph25.3 mphClear
3:58 AM57.4 °F41.5 °F56 %29.64 in10.0 miSouth (180°)12.7 mphOvercast
4:58 AM57.2 °F41.7 °F56 %29.62 in10.0 miSouth (180°)13.8 mphMostly Cloudy
5:58 AM59.0 °F42.4 °F54 %29.63 in10.0 miSouth (170°)13.8 mph25.3 mphScattered Clouds
6:58 AM55.4 °F42.4 °F62 %29.64 in10.0 miSE (140°)11.5 mphPartly Cloudy
7:58 AM57.2 °F42.4 °F58 %29.64 in10.0 miSouth (180°)9.2 mphClear
8:58 AM60.8 °F43.3 °F53 %29.63 in10.0 miSouth (170°)13.8 mphClear
9:58 AM63.9 °F43.9 °F48 %29.62 in10.0 miSouth (180°)15.0 mphClear
10:58 AM67.5 °F44.6 °F44 %29.57 in10.0 miSouth (170°)11.5 mph18.4 mphClear
11:58 AM72.0 °F45.0 °F38 %29.54 in10.0 miSSE (160°)20.7 mphClear
12:58 PM75.7 °F44.6 °F33 %29.48 in10.0 miSouth (170°)16.1 mph21.9 mphClear
1:58 PM78.8 °F45.0 °F30 %29.45 in10.0 miSouth (170°)20.7 mph25.3 mphClear
2:58 PM80.1 °F45.7 °F30 %29.43 in10.0 miSouth (180°)12.7 mph23.0 mphClear
3:58 PM81.0 °F46.0 °F29 %29.42 in10.0 miSouth (170°)17.3 mphClear
4:58 PM80.4 °F46.4 °F30 %29.40 in10.0 miSouth (170°)10.4 mphClear
5:58 PM72.9 °F48.7 °F42 %29.44 in10.0 miNNW (330°)18.4 mph25.3 mphClear
6:58 PM65.5 °F48.9 °F55 %29.48 in10.0 miNNW (340°)25.3 mph34.5 mphMostly Cloudy
7:58 PM62.4 °F48.0 °F59 %29.50 in10.0 miNorth (350°)21.9 mphPartly Cloudy
8:58 PM60.8 °F49.1 °F65 %29.52 in10.0 miNNW (340°)24.2 mph29.9 mphMostly Cloudy
9:58 PM59.5 °F49.1 °F68 %29.53 in10.0 miNNW (340°)21.9 mphThunderstormThunderstorm
10:03 PM59.0 °F50.0 °F72 %29.58 in10.0 miNNW (340°)15.0 mphRain-ThunderstormLight Thunderstorms and Rain
10:18 PM59.0 °F50.0 °F72 %29.60 in10.0 miNorth (350°)20.7 mph24.2 mphMostly Cloudy
10:58 PM57.2 °F50.9 °F79 %29.49 in10.0 miNorth (350°)21.9 mph0.01 inScattered Clouds
11:58 PM55.6 °F49.3 °F79 %29.49 in10.0 miNorth (350°)23.0 mphClear
Hourly data recorded from KRCA, located miles away from Box Elder, South Dakota







STORIES FROM OUR PARTNERS